• In Hungary
  • List of Countries
  • For 7 days
  • Water Temperature
  • Satellite Maps
  • Weather Map
  • News
  • Weather Widgets
  • user-avatar
    Login

    Hourly Weather Gelezniy Port

    Today, 22 September, Saturday

    Time Temperature Precipitation Wind Pressure Humidity
    00:00 +23°C° 0 mm 2 mps 763 mmHg 48%
    01:00 +21°C° 0 mm 2 mps 763 mmHg 49%
    02:00 +22°C° 0 mm 1 mps 763 mmHg 50%
    03:00 +21°C° 0 mm 2 mps 763 mmHg 51%
    04:00 +20°C° 0 mm 2 mps 763 mmHg 53%
    05:00 +20°C° 0 mm 2 mps 763 mmHg 54%
    06:00 +21°C° 0 mm 2 mps 763 mmHg 51%
    07:00 +23°C° 0 mm 2 mps 763 mmHg 48%
    08:00 +25°C° 0 mm 2 mps 763 mmHg 45%
    09:00 +26°C° 0 mm 2 mps 763 mmHg 41%
    10:00 +28°C° 0 mm 2 mps 763 mmHg 36%
    11:00 +30°C° 0 mm 2 mps 763 mmHg 31%
    12:00 +30°C° 0 mm 2 mps 762 mmHg 29%
    13:00 +31°C° 0 mm 2 mps 762 mmHg 28%
    14:00 +31°C° 0 mm 2 mps 762 mmHg 26%
    15:00 +30°C° 0 mm 2 mps 761 mmHg 29%
    16:00 +29°C° 0 mm 2 mps 761 mmHg 32%
    17:00 +28°C° 0 mm 2 mps 761 mmHg 35%
    18:00 +26°C° 0 mm 2 mps 761 mmHg 40%
    19:00 +25°C° 0 mm 2 mps 761 mmHg 44%
    20:00 +23°C° 0 mm 2 mps 761 mmHg 48%
    21:00 +23°C° 0 mm 2 mps 761 mmHg 49%
    22:00 +21°C° 0 mm 2 mps 761 mmHg 50%
    23:00 +21°C° 0 mm 2 mps 761 mmHg 51%

    Tomorrow, 23 September, Sunday

    Time Temperature Precipitation Wind Pressure Humidity
    00:00 +20°C° 0 mm 3 mps 761 mmHg 52%
    01:00 +20°C° 0 mm 3 mps 761 mmHg 54%
    02:00 +20°C° 0 mm 4 mps 761 mmHg 55%
    03:00 +20°C° 0 mm 4 mps 761 mmHg 60%
    04:00 +20°C° 0 mm 5 mps 761 mmHg 65%
    05:00 +20°C° 0 mm 6 mps 761 mmHg 70%
    06:00 +18°C° 0.1 mm 7 mps 761 mmHg 72%
    07:00 +17°C° 0.1 mm 7 mps 762 mmHg 73%
    08:00 +17°C° 0.1 mm 8 mps 762 mmHg 75%
    09:00 +17°C° 0.1 mm 8 mps 762 mmHg 72%
    10:00 +17°C° 0.1 mm 7 mps 763 mmHg 70%
    11:00 +18°C° 0.1 mm 7 mps 763 mmHg 67%
    12:00 +20°C° 0 mm 7 mps 763 mmHg 58%
    13:00 +21°C° 0 mm 6 mps 763 mmHg 50%
    14:00 +22°C° 0 mm 6 mps 763 mmHg 41%
    15:00 +22°C° 0 mm 6 mps 763 mmHg 39%
    16:00 +21°C° 0 mm 5 mps 764 mmHg 38%
    17:00 +21°C° 0 mm 5 mps 764 mmHg 36%
    18:00 +20°C° 0 mm 4 mps 764 mmHg 39%
    19:00 +18°C° 0 mm 3 mps 764 mmHg 42%
    20:00 +17°C° 0 mm 3 mps 765 mmHg 44%
    21:00 +17°C° 0 mm 2 mps 765 mmHg 46%
    22:00 +18°C° 0 mm 1 mps 765 mmHg 47%
    23:00 +16°C° 0 mm 1 mps 765 mmHg 49%

    Day after tomorrow, 24 September, Monday

    Time Temperature Precipitation Wind Pressure Humidity
    00:00 +16°C° 0 mm 2 mps 764 mmHg 49%
    01:00 +16°C° 0 mm 2 mps 764 mmHg 49%
    02:00 +16°C° 0 mm 3 mps 764 mmHg 49%
    03:00 +15°C° 0 mm 4 mps 764 mmHg 51%
    04:00 +15°C° 0 mm 5 mps 763 mmHg 53%
    05:00 +15°C° 0 mm 6 mps 763 mmHg 54%
    06:00 +16°C° 0 mm 7 mps 763 mmHg 51%
    07:00 +18°C° 0 mm 8 mps 762 mmHg 48%
    08:00 +20°C° 0 mm 8 mps 762 mmHg 44%
    09:00 +22°C° 0 mm 9 mps 761 mmHg 42%
    10:00 +23°C° 0 mm 10 mps 761 mmHg 40%
    11:00 +24°C° 0 mm 10 mps 760 mmHg 38%
    12:00 +26°C° 0 mm 10 mps 760 mmHg 42%
    13:00 +26°C° 0 mm 11 mps 759 mmHg 46%
    14:00 +26°C° 0 mm 11 mps 758 mmHg 50%
    15:00 +24°C° 0 mm 11 mps 758 mmHg 53%
    16:00 +24°C° 0 mm 10 mps 758 mmHg 57%
    17:00 +23°C° 0 mm 10 mps 758 mmHg 61%
    18:00 +21°C° 0.3 mm 11 mps 758 mmHg 64%
    19:00 +18°C° 0.3 mm 11 mps 759 mmHg 66%
    20:00 +15°C° 0.3 mm 12 mps 760 mmHg 69%
    21:00 +16°C° 0.2 mm 11 mps 761 mmHg 65%
    22:00 +14°C° 0.2 mm 10 mps 761 mmHg 62%
    23:00 +13°C° 0.2 mm 9 mps 762 mmHg 59%

    25 September, Tuesday

    Time Temperature Precipitation Wind Pressure Humidity
    00:00 +13°C° 0.1 mm 9 mps 762 mmHg 60%
    01:00 +13°C° 0.1 mm 9 mps 763 mmHg 61%
    02:00 +12°C° 0.1 mm 8 mps 763 mmHg 62%
    03:00 +12°C° 0 mm 8 mps 763 mmHg 64%
    04:00 +11°C° 0 mm 8 mps 763 mmHg 66%
    05:00 +10°C° 0 mm 8 mps 764 mmHg 68%
    06:00 +11°C° 0 mm 8 mps 764 mmHg 63%
    07:00 +11°C° 0 mm 9 mps 764 mmHg 58%
    08:00 +12°C° 0 mm 9 mps 765 mmHg 53%
    09:00 +13°C° 0 mm 9 mps 765 mmHg 49%
    10:00 +15°C° 0 mm 9 mps 765 mmHg 45%
    11:00 +16°C° 0 mm 9 mps 765 mmHg 42%
    12:00 +16°C° 0 mm 9 mps 765 mmHg 42%
    13:00 +16°C° 0 mm 9 mps 765 mmHg 43%
    14:00 +16°C° 0 mm 10 mps 765 mmHg 44%
    15:00 +14°C° 0.1 mm 10 mps 766 mmHg 47%
    16:00 +14°C° 0.1 mm 11 mps 766 mmHg 50%
    17:00 +13°C° 0.1 mm 11 mps 766 mmHg 53%
    18:00 +12°C° 0.1 mm 11 mps 767 mmHg 52%
    19:00 +11°C° 0.1 mm 11 mps 768 mmHg 52%
    20:00 +11°C° 0.1 mm 10 mps 769 mmHg 52%
    21:00 +9°C° 0 mm 10 mps 769 mmHg 53%
    22:00 +9°C° 0 mm 10 mps 769 mmHg 53%
    23:00 +8°C° 0 mm 9 mps 770 mmHg 54%

    26 September, Wednesday

    Time Temperature Precipitation Wind Pressure Humidity
    00:00 +8°C° 0 mm 9 mps 770 mmHg 56%
    01:00 +7°C° 0 mm 9 mps 770 mmHg 57%
    02:00 +7°C° 0 mm 8 mps 771 mmHg 59%
    03:00 +6°C° 0 mm 8 mps 771 mmHg 61%
    04:00 +6°C° 0 mm 8 mps 771 mmHg 63%
    05:00 +6°C° 0 mm 8 mps 772 mmHg 65%
    06:00 +6°C° 0 mm 8 mps 772 mmHg 62%
    07:00 +7°C° 0 mm 8 mps 772 mmHg 59%
    08:00 +9°C° 0 mm 8 mps 773 mmHg 56%
    09:00 +10°C° 0 mm 8 mps 773 mmHg 50%
    10:00 +12°C° 0 mm 7 mps 773 mmHg 43%
    11:00 +14°C° 0 mm 7 mps 773 mmHg 37%
    12:00 +14°C° 0 mm 7 mps 773 mmHg 35%
    13:00 +15°C° 0 mm 7 mps 773 mmHg 32%
    14:00 +15°C° 0 mm 6 mps 773 mmHg 30%
    15:00 +15°C° 0 mm 6 mps 773 mmHg 30%
    16:00 +14°C° 0 mm 6 mps 773 mmHg 30%
    17:00 +14°C° 0 mm 6 mps 773 mmHg 30%
    18:00 +12°C° 0 mm 5 mps 773 mmHg 33%
    19:00 +10°C° 0 mm 5 mps 773 mmHg 36%
    20:00 +10°C° 0 mm 4 mps 773 mmHg 39%
    21:00 +10°C° 0 mm 3 mps 773 mmHg 41%
    22:00 +10°C° 0 mm 3 mps 773 mmHg 42%
    23:00 +9°C° 0 mm 2 mps 773 mmHg 44%

    27 September, Thursday

    Time Temperature Precipitation Wind Pressure Humidity
    00:00 +9°C° 0 mm 2 mps 773 mmHg 46%
    01:00 +9°C° 0 mm 2 mps 773 mmHg 48%
    02:00 +9°C° 0 mm 2 mps 772 mmHg 50%
    03:00 +9°C° 0 mm 2 mps 772 mmHg 52%
    04:00 +9°C° 0 mm 2 mps 772 mmHg 54%
    05:00 +8°C° 0 mm 2 mps 772 mmHg 56%
    06:00 +10°C° 0 mm 2 mps 772 mmHg 52%
    07:00 +13°C° 0 mm 2 mps 772 mmHg 49%
    08:00 +14°C° 0 mm 2 mps 771 mmHg 45%
    09:00 +16°C° 0 mm 2 mps 771 mmHg 41%
    10:00 +17°C° 0 mm 2 mps 771 mmHg 36%
    11:00 +18°C° 0 mm 3 mps 771 mmHg 31%
    12:00 +19°C° 0 mm 3 mps 770 mmHg 30%
    13:00 +19°C° 0 mm 4 mps 769 mmHg 30%
    14:00 +20°C° 0 mm 4 mps 769 mmHg 29%
    15:00 +19°C° 0 mm 4 mps 768 mmHg 33%
    16:00 +18°C° 0 mm 4 mps 768 mmHg 36%
    17:00 +17°C° 0 mm 4 mps 767 mmHg 40%
    18:00 +15°C° 0 mm 4 mps 767 mmHg 45%
    19:00 +14°C° 0 mm 4 mps 767 mmHg 49%
    20:00 +13°C° 0 mm 3 mps 767 mmHg 54%
    21:00 +13°C° 0 mm 3 mps 767 mmHg 55%
    22:00 +13°C° 0 mm 3 mps 766 mmHg 57%
    23:00 +13°C° 0 mm 3 mps 766 mmHg 58%
    Show more